GW2134 Weather Reports


time (UTC)temp
C
wind
direction
speed
KPH
gust
KPH
rain 1hr
cm
rain 24hr
cm
rain mn
cm
humidity
%
barometer
mb
20260508161558 16 0 0.0 11.3 0.00 0.00 0.00 69 1018.0
20260508160051 16 20 3.2 9.7 0.00 0.00 0.00 69 1017.9
20260508154555 16 282 3.2 16.1 0.00 0.00 0.00 68 1017.8
20260508153104 16 115 0.0 6.4 0.00 0.00 0.00 67 1017.7
20260508151551 17 26 1.6 9.7 0.00 0.00 0.00 66 1017.6
20260508150054 17 126 0.0 6.4 0.00 0.00 0.00 66 1017.8
20260508144553 17 157 1.6 8.0 0.00 0.00 0.00 64 1017.9
20260508143115 17 143 1.6 14.5 0.00 0.00 0.00 62 1017.9
20260508141558 17 341 1.6 9.7 0.00 0.00 0.00 62 1017.9
20260508134553 17 99 4.8 11.3 0.00 0.00 0.00 62 1018.0
20260508133057 17 202 3.2 14.5 0.00 0.00 0.00 62 1018.0
20260508131550 17 104 3.2 11.3 0.00 0.00 0.00 64 1018.1
20260508130051 17 43 1.6 8.0 0.00 0.00 0.00 63 1018.1
20260508124551 17 100 3.2 12.9 0.00 0.00 0.00 62 1018.1
20260508123055 17 0 1.6 12.9 0.00 0.00 0.00 61 1018.2
20260508121554 17 0 4.8 16.1 0.00 0.00 0.00 61 1018.3
20260508120101 17 65 1.6 12.9 0.00 0.00 0.00 62 1018.3
20260508114603 16 360 3.2 12.9 0.00 0.00 0.00 62 1018.4
20260508113104 16 338 1.6 14.5 0.00 0.00 0.00 63 1018.3
20260508111601 16 92 3.2 12.9 0.00 0.00 0.00 63 1018.4
20260508104554 16 107 1.6 16.1 0.00 0.00 0.00 63 1018.4
20260508103057 16 0 0.0 14.5 0.00 0.00 0.00 64 1018.6
20260508101555 16 85 0.0 14.5 0.00 0.00 0.00 61 1018.5
20260508100123 16 327 9.7 19.3 0.00 0.00 0.00 63 1018.6
20260508094553 16 92 1.6 16.1 0.00 0.00 0.00 66 1018.5
20260508093053 15 89 3.2 12.9 0.00 0.00 0.00 67 1018.5
20260508091607 15 334 0.0 8.0 0.00 0.00 0.00 72 1018.5
20260508090052 15 0 0.0 9.7 0.00 0.00 0.00 73 1018.5
20260508084552 15 72 0.0 4.8 0.00 0.00 0.00 74 1018.5
20260508083052 14 0 4.8 14.5 0.00 0.00 0.00 73 1018.5
20260508081611 15 331 1.6 19.3 0.00 0.00 0.00 74 1018.4
20260508074556 13 185 3.2 12.9 0.00 0.00 0.00 78 1018.3
20260508073052 15 38 4.8 12.9 0.00 0.00 0.00 72 1018.1
20260508071553 15 125 0.0 6.4 0.00 0.00 0.00 72 1017.7
20260508070059 14 0 1.6 4.8 0.00 0.00 0.00 73 1017.8
20260508064558 13 0 0.0 6.4 0.00 0.00 0.00 77 1017.8
20260508063059 12 0 0.0 6.4 0.00 0.00 0.00 79 1017.7
20260508061604 12 0 0.0 4.8 0.00 0.00 0.00 79 1017.5
20260508060111 11 0 0.0 1.6 0.00 0.00 0.00 79 1017.5
20260508054638 11 0 0.0 1.6 0.00 0.00 0.00 80 1017.4
20260508053055 11 165 1.6 6.4 0.00 0.00 0.00 79 1017.2
20260508051550 11 0 0.0 1.6 0.00 0.00 0.00 79 1017.2
20260508050053 11 0 0.0 1.6 0.00 0.00 0.00 79 1017.0
20260508044550 11 0 0.0 4.8 0.00 0.00 0.00 79 1017.0
20260508043058 10 0 0.0 4.8 0.00 0.00 0.00 79 1016.8
20260508041553 10 0 0.0 0.0 0.00 0.00 0.00 80 1016.7
20260508040052 10 0 0.0 1.6 0.00 0.00 0.00 80 1016.5
20260508034554 10 0 0.0 0.0 0.00 0.00 0.00 81 1016.4
20260508033055 10 17 0.0 1.6 0.00 0.00 0.00 79 1016.4
20260508031559 10 0 0.0 1.6 0.00 0.00 0.00 78 1016.4
20260508030059 10 92 0.0 1.6 0.00 0.00 0.00 76 1016.4
20260508024603 11 0 0.0 3.2 0.00 0.00 0.00 76 1016.4
20260508023051 11 0 0.0 3.2 0.00 0.00 0.00 75 1016.3
20260508021552 11 0 0.0 6.4 0.00 0.00 0.00 74 1016.3
20260508020105 11 328 3.2 6.4 0.00 0.00 0.00 73 1016.5
20260508014602 11 313 3.2 8.0 0.00 0.00 0.00 72 1016.5
20260508013051 11 75 0.0 4.8 0.00 0.00 0.00 74 1016.6
20260508011553 11 28 4.8 8.0 0.00 0.00 0.00 77 1016.8
20260508004558 10 0 1.6 4.8 0.00 0.00 0.00 80 1017.0
20260508003058 10 321 0.0 3.2 0.00 0.00 0.00 80 1017.2
20260508001600 10 0 0.0 3.2 0.00 0.00 0.00 80 1017.1
20260508000057 10 321 3.2 6.4 0.00 0.00 0.00 80 1017.1
20260507234552 10 342 0.0 4.8 0.00 0.00 0.00 79 1017.2
20260507233051 11 349 0.0 1.6 0.00 0.00 0.00 77 1017.3
20260507231556 11 0 0.0 1.6 0.00 0.00 0.00 77 1017.3
20260507230056 11 0 0.0 4.8 0.00 0.00 0.00 77 1017.3
20260507224556 11 333 3.2 6.4 0.00 0.00 0.00 77 1017.3
20260507223055 11 0 0.0 1.6 0.00 0.00 0.00 76 1017.4
20260507221555 11 0 0.0 1.6 0.00 0.00 0.00 76 1017.2
20260507220056 11 0 0.0 3.2 0.00 0.00 0.00 76 1017.1
20260507214556 11 329 3.2 8.0 0.00 0.00 0.00 76 1017.0
20260507213057 11 344 1.6 6.4 0.00 0.00 0.00 75 1017.0
20260507211555 11 317 1.6 4.8 0.00 0.00 0.00 74 1017.0
20260507210149 12 0 0.0 1.6 0.00 0.00 0.00 74 1016.8
20260507204551 12 201 0.0 8.0 0.00 0.00 0.00 74 1016.8
20260507203059 12 355 4.8 8.0 0.00 0.00 0.00 74 1016.9
20260507201552 12 350 4.8 8.0 0.00 0.00 0.00 73 1017.1
20260507200052 12 0 0.0 4.8 0.00 0.00 0.00 73 1016.8
20260507194554 12 297 3.2 8.0 0.00 0.00 0.00 73 1016.9
20260507193055 12 28 0.0 4.8 0.00 0.00 0.00 73 1016.7
20260507191558 12 313 4.8 8.0 0.00 0.00 0.00 73 1016.7
20260507190051 12 30 1.6 6.4 0.00 0.00 0.00 72 1016.4
20260507184554 12 336 4.8 8.0 0.00 0.00 0.00 72 1016.4
20260507183056 13 338 4.8 8.0 0.00 0.00 0.00 72 1016.3
20260507181553 13 355 3.2 9.7 0.00 0.00 0.00 70 1016.1
20260507180059 13 355 6.4 9.7 0.00 0.00 0.00 69 1016.1
20260507174605 14 360 3.2 8.0 0.00 0.00 0.00 67 1015.9
20260507173104 14 324 4.8 8.0 0.00 0.00 0.00 67 1015.8
20260507171611 16 339 1.6 4.8 0.00 0.00 0.00 64 1015.7
20260507170053 16 333 0.0 3.2 0.00 0.00 0.00 61 1015.6
20260507164553 17 0 0.0 3.2 0.00 0.00 0.00 62 1015.6
20260507163054 17 0 1.6 6.4 0.00 0.00 0.00 60 1015.7